sat.trackr.live / text

‹ back to catalog

STARLINK-31987

NORAD 60017 · 2024-111B

PAYLOAD ACTIVE UNKNOWN

§ Identity

Operator
Country
US
Launch date
2024-06-08
Launch site
AFETR
Launch vehicle
Mass (kg)
RCS (m²)

Purposes: comms

External: N2YO · Heavens-Above · Gunter

§ Orbital elements

Epoch: 2026-09-21T07:59:01.645152Z

Period
94.01 min
Inclination
53.1602°
Eccentricity
0.0001366
Mean motion
15.31705593 rev/d
Perigee alt
469.8 km
Apogee alt
471.7 km
Semi-major
6,848.9 km
B*
4.0147e-5
RAAN
245.7287°
Arg perigee
94.2195°
Mean anomaly
265.8963°
Rev number
12,896

§ Raw data

STARLINK-319871 60017U 24111B   26264.33265793  .00000881  00000+0  40147-4 0  99972 60017  53.1602 245.7287 0001366  94.2195 265.8963 15.31705593128968

JSON: /api/v1/satellites/60017 · /tle

For live sub-satellite position, see the globe view (requires WebGL).

§ Visibility from observer

Set your observer location to see the next 7 days of passes ≥ 10°. The values pass through the URL so the page stays shareable.

No JS? Fill the form by hand. The geolocation button needs JavaScript.